Location: Newark
(44.0160°N, 116.9215°W)
Time: 12:04:23
(UTC+00:00)

Envisat - Pass Details

Date: 23 November 2019
Orbit: 764 x 766 km, 98.1° (Epoch: 11 December)

Event Time Altitude Azimuth Distance (km) Brightness Sun altitude
Rises 01:24:39 0° 156° (SSE) 3,219 6.2 -12.3°
Reaches altitude 10° 01:26:57 10° 153° (SSE) 2,297 5.4 -12.7°
Maximum altitude 01:31:57 64° 73° (ENE) 849 2.9 -13.6°
Drops below altitude 10° 01:36:59 10° 353° (N) 2,312 5.4 -14.5°
Sets 01:39:19 0° 350° (N) 3,242 6.2 -14.9°
